Wetbulb
47.46 42.52 42.01 44.65 46.99 48.10 45.20 44.56 43.42 46.91 47.39 44.00 43.45 44.10 47.05 49.76 49.85 46.57 47.29 48.99 49.59 51.91 55.26 58.58 59.54 60.32 60.81 61.32 62.25 62.74 61.89 61.58 61.14 61.05 60.42 60.08 60.39 61.41 61.47 61.97 62.45 62.74 62.98 63.07
42.68 40.52 46.58 48.80 47.55 46.88 46.36 44.45 44.67 46.25 43.94 41.09 42.52 43.04 46.35 47.56 48.19 49.83 49.38 49.30 49.17 49.02 52.34 56.36 58.97 59.68 60.94 61.44 62.11 62.42 62.56 62.47 62.05 61.71 61.61 61.24 60.88 60.72 61.89 61.83 62.14 62.37 62.54 62.81
40.78 43.69 48.85 48.28 46.40 44.27 44.97 44.27 44.52 45.45 42.35 41.80 39.47 39.00 42.73 46.72 48.02 47.88 48.28 48.07 49.02 48.92 48.85 52.41 56.18 58.35 59.69 60.40 61.45 62.37 62.78 63.06 63.73 62.57 62.09 61.23 61.20 60.87 61.00 61.84 62.10 62.37 62.44 62.87
43.06 46.60 45.73 45.09 44.61 45.48 42.07 46.88 46.72 44.93 39.36 34.31 41.01 31.08 39.32 42.84 46.17 48.09 47.52 45.44 46.26 46.85 48.41 49.98 55.16 56.12 58.91 60.81 61.40 62.52 63.08 63.61 64.23 63.74 62.31 61.45 60.86 60.01 61.56 62.35 63.04 63.66 62.73 62.44
40.31 42.77 42.94 43.10 44.59 46.62 42.80 45.87 44.12 42.27 39.68 38.05 37.47 32.48 36.20 41.61 40.79 44.50 48.44 47.86 46.91 46.99 46.91 47.79 51.53 56.95 59.24 60.14 61.14 62.21 62.89 63.45 63.86 64.23 63.59 62.34 61.31 62.05 62.51 62.67 62.76 63.42 63.40 62.80
40.82 46.24 45.91 44.84 46.18 46.43 45.06 42.37 42.10 39.79 37.83 30.25 36.35 34.61 33.08 37.61 40.68 43.19 44.76 48.67 50.05 49.47 49.02 47.79 48.59 53.33 57.45 58.73 59.24 60.39 61.00 61.91 63.28 63.67 63.92 63.19 62.29 61.52 61.56 61.82 62.18 62.90 63.49 63.44
38.98 41.64 41.58 46.48 43.14 44.42 43.15 38.43 28.78 29.07 29.48 26.40 32.31 32.77 35.94 40.90 42.00 42.68 42.53 44.55 43.68 45.22 48.18 48.71 46.90 47.51 51.51 54.58 57.97 58.83 59.16 59.65 60.47 61.87 63.20 63.59 63.38 62.22 61.80 61.92 62.34 62.66 63.27 63.31
34.27 32.43 39.03 43.64 43.88 39.34 39.54 39.46 29.96 22.91 23.90 25.42 28.80 26.99 34.02 42.77 42.69 43.32 42.27 40.79 42.66 42.32 43.25 42.84 44.91 46.99 47.62 49.82 53.35 56.95 57.42 58.39 58.88 59.62 61.15 62.58 63.47 63.29 62.95 62.79 63.05 62.98 62.98 63.68
34.71 33.11 41.50 42.80 46.07 43.29 38.91 37.34 39.55 29.67 21.82 25.33 29.42 34.02 40.30 42.37 41.64 42.82 42.91 42.56 41.67 42.15 44.69 44.45 43.33 45.32 46.20 46.31 47.73 50.10 51.35 53.35 56.20 58.58 59.63 60.51 62.07 62.67 62.68 62.14 62.07 62.46 62.54 62.19
38.28 30.81 38.28 40.14 43.73 41.17 41.68 42.50 32.95 32.72 20.29 19.92 27.19 28.97 32.25 36.27 40.11 41.12 40.79 40.82 40.88 41.50 41.99 42.75 43.24 43.99 44.53 44.14 45.36 46.55 46.95 47.34 49.60 51.11 56.30 59.55 60.36 60.97 62.42 62.40 62.66 62.53 62.66 62.46
39.30 35.08 32.49 36.32 35.67 36.15 34.49 36.96 36.33 36.20 32.44 25.90 23.77 28.80 38.48 39.24 40.61 39.81 39.87 41.29 41.10 40.77 42.24 42.73 43.37 44.22 44.89 45.34 45.34 45.42 46.12 46.44 47.08 48.14 51.30 54.17 55.76 57.70 59.98 59.78 59.85 59.68 59.98 59.51
38.61 34.78 27.99 32.11 33.96 35.70 38.25 38.52 37.18 31.42 28.99 30.36 29.34 29.62 39.25 40.38 40.33 40.22 40.31 41.83 40.89 41.52 42.43 42.64 43.48 43.78 43.97 44.92 46.16 46.64 47.08 47.03 47.69 48.24 48.44 49.56 51.73 53.46 55.57 57.45 58.30 58.22 57.69 56.52
38.19 31.49 26.98 29.40 33.63 34.15 34.68 36.89 39.97 35.77 33.81 28.77 25.13 28.55 38.59 39.36 39.09 40.31 40.85 41.26 42.08 42.07 42.76 43.29 43.45 43.58 43.85 44.67 46.41 46.97 47.50 47.22 47.22 47.53 47.54 47.54 48.03 48.22 48.36 50.28 54.38 53.81 52.48 51.31
40.96 33.45 30.96 27.80 31.15 34.12 30.86 35.26 38.28 35.84 27.90 30.08 32.14 32.83 36.02 37.00 37.80 39.77 39.74 40.67 40.68 41.94 43.25 43.27 43.07 43.39 43.87 44.65 45.53 46.60 47.33 47.30 46.70 46.58 46.22 45.42 45.89 47.06 47.34 46.92 47.04 48.86 48.84 48.18
38.78 28.05 31.43 33.61 33.79 35.06 34.60 35.10 35.53 35.62 35.88 32.29 35.14 35.57 38.47 38.86 39.40 39.92 40.54 41.45 41.31 40.48 40.87 41.77 42.29 42.87 43.30 43.64 44.28 46.06 46.38 45.93 45.80 45.56 44.76 45.03 46.49 47.39 45.81 42.49 42.03 43.81 43.86 43.64
39.29 26.83 29.72 26.36 32.70 33.57 32.56 36.38 36.88 37.76 37.81 37.34 36.61 35.63 40.06 42.55 42.30 40.95 40.28 40.01 40.00 40.48 41.60 42.30 42.85 43.30 44.07 44.19 43.90 45.33 45.30 44.42 44.55 44.50 43.68 42.84 42.83 41.37 40.99 40.21 38.10 37.49 36.85 37.35
35.64 28.70 28.06 19.25 30.62 31.11 25.95 33.19 35.84 37.21 39.14 38.55 33.47 38.16 39.34 38.51 39.93 40.04 40.67 40.24 40.66 41.31 41.70 41.81 42.11 43.03 43.35 43.82 44.56 43.68 44.21 43.49 42.90 42.23 40.27 39.42 38.54 37.74 37.27 36.59 36.25 35.64 35.66 35.75
31.92 32.12 30.85 24.14 24.60 17.77 31.08 38.77 39.83 37.86 39.32 41.10 40.90 39.43 40.87 41.12 41.28 41.58 41.77 40.86 41.64 41.71 41.77 41.77 41.97 42.38 43.21 43.83 43.61 43.92 43.44 41.53 39.66 37.66 35.83 36.61 36.96 36.26 35.30 35.14 34.77 34.07 34.27 34.33
38.14 33.52 27.11 25.00 18.38 26.92 32.35 33.61 36.02 35.10 35.18 40.71 40.56 41.53 40.88 40.88 40.02 41.70 42.09 42.14 40.14 39.59 40.56 40.87 41.38 42.24 42.80 43.24 43.30 41.12 37.99 37.00 36.15 35.41 34.82 34.44 35.99 34.38 34.21 33.81 33.07 32.40 32.77 32.96
36.88 37.39 31.62 27.85 18.03 19.08 29.12 34.87 39.99 38.45 30.08 37.25 39.93 39.84 39.10 39.28 34.05 39.70 40.95 38.71 38.17 38.44 38.68 38.39 39.34 40.47 40.99 41.18 38.86 37.24 36.05 35.51 35.30 34.95 34.33 33.46 32.75 34.46 34.04 32.83 32.26 32.18 32.84 32.18
31.16 30.91 28.99 24.09 18.67 26.63 35.20 34.81 40.07 26.74 29.88 36.55 39.50 40.65 39.96 38.23 40.59 36.87 37.42 36.57 36.31 36.19 36.22 36.67 36.98 35.50 35.02 35.41 35.71 35.07 34.53 34.41 34.37 32.01 31.88 30.37 30.07 30.35 33.17 32.05 31.68 32.18 31.73 31.85
30.07 29.96 29.50 24.31 19.06 23.43 34.12 33.96 32.97 35.28 34.84 35.69 37.59 38.15 37.73 38.38 37.03 36.27 36.29 35.29 35.44 34.77 33.34 32.72 31.82 31.12 31.44 32.65 33.88 33.45 33.31 32.14 30.14 29.66 28.92 26.85 26.74 28.97 30.22 32.39 31.92 31.71 32.04 31.86
27.98 34.17 30.91 32.23 29.61 34.56 36.71 35.64 38.19 39.53 37.19 35.64 36.58 37.52 39.09 37.09 35.53 35.15 34.09 33.19 31.43 30.62 30.59 29.15 29.05 28.68 28.43 28.98 29.94 30.41 28.04 28.75 28.10 27.67 27.67 27.77 28.57 29.29 29.58 30.21 30.89 30.61 31.52 30.88
32.36 36.92 32.51 31.68 33.32 32.18 35.16 34.66 37.17 37.06 37.21 37.24 37.56 36.45 38.00 36.57 35.02 33.45 32.51 31.27 30.60 28.76 29.03 26.88 27.49 27.14 26.35 26.07 27.72 26.69 27.69 28.37 29.08 27.31 25.20 26.06 27.87 27.93 28.44 29.47 29.12 29.02 28.03 26.48
31.40 35.40 29.54 30.61 29.77 32.36 32.32 35.55 37.33 35.41 34.96 35.35 34.31 34.25 36.56 34.67 32.75 31.96 29.92 28.78 29.47 28.69 26.50 26.42 26.82 26.03 24.52 24.80 24.35 24.26 25.32 25.65 27.60 26.53 25.26 25.81 26.31 26.34 26.11 25.99 25.79 26.84 27.00 28.96
32.75 34.99 32.88 32.29 34.00 37.82 36.31 37.20 36.25 34.12 33.71 33.53 33.31 32.97 33.15 33.30 31.99 30.49 28.92 28.45 27.42 26.28 24.53 25.41 24.30 24.13 21.98 21.32 21.16 21.47 23.14 24.63 24.26 23.97 24.12 23.11 22.84 22.15 23.49 23.91 22.69 29.19 29.51 30.20
MSLP
1014.47 1015.28 1014.99 1015.39 1015.62 1015.04 1014.95 1015.10 1014.74 1014.51 1014.67 1014.99 1015.00 1014.68 1014.23 1013.91 1013.82 1013.87 1014.16 1013.95 1013.84 1013.75 1013.96 1014.65 1015.15 1015.70 1016.37 1016.72 1017.37 1018.01 1018.84 1019.62 1020.16 1020.48 1020.77 1021.13 1021.51 1021.84 1022.13 1022.26 1022.42 1022.75 1023.09 1023.39
1014.11 1013.17 1013.78 1014.94 1015.07 1014.65 1014.44 1014.59 1014.65 1015.19 1015.23 1015.37 1015.13 1014.52 1013.94 1013.50 1013.01 1013.36 1013.70 1013.77 1013.56 1013.35 1013.46 1013.95 1014.60 1015.10 1015.65 1015.96 1016.25 1016.89 1017.75 1018.62 1019.15 1019.71 1019.97 1020.28 1020.71 1021.09 1021.29 1021.58 1021.79 1021.97 1022.43 1022.89
1010.89 1011.10 1012.56 1013.49 1014.05 1014.21 1014.27 1014.08 1014.45 1015.12 1015.56 1015.65 1015.59 1014.40 1013.54 1012.81 1012.51 1012.52 1012.78 1013.00 1013.08 1012.97 1013.11 1013.52 1014.10 1014.66 1015.32 1015.73 1015.81 1016.02 1016.52 1017.34 1018.13 1018.91 1019.57 1019.91 1020.24 1020.67 1020.96 1021.10 1021.25 1021.36 1021.69 1022.10
1010.99 1011.00 1011.43 1012.35 1012.88 1013.31 1013.64 1013.85 1014.28 1015.31 1015.81 1016.04 1015.98 1014.97 1012.87 1011.79 1011.62 1011.71 1012.03 1012.26 1012.52 1012.77 1012.68 1012.93 1013.34 1014.10 1014.64 1014.96 1015.71 1016.04 1016.19 1016.73 1017.24 1018.00 1018.70 1019.09 1019.31 1019.70 1019.86 1020.09 1020.49 1020.51 1021.00 1021.32
1009.32 1009.93 1010.67 1011.36 1011.73 1012.63 1013.53 1014.09 1014.75 1015.54 1016.34 1016.89 1016.45 1016.08 1013.04 1011.74 1011.22 1010.81 1011.15 1011.45 1011.74 1011.97 1012.33 1012.49 1012.58 1012.93 1013.32 1014.21 1014.75 1015.01 1015.75 1016.19 1016.41 1017.05 1017.72 1018.24 1018.48 1018.61 1018.99 1019.31 1019.65 1019.88 1020.04 1020.53
1010.27 1010.11 1010.65 1010.71 1011.88 1012.72 1013.95 1014.77 1015.89 1016.73 1017.60 1017.53 1016.47 1015.99 1013.25 1011.99 1010.80 1010.29 1010.20 1010.59 1010.93 1011.34 1011.60 1011.95 1012.08 1012.57 1013.00 1013.60 1014.17 1014.81 1015.21 1015.36 1015.62 1015.97 1016.51 1017.02 1017.61 1018.19 1018.81 1019.05 1019.31 1019.60 1019.91 1020.01
1010.81 1010.60 1010.90 1010.91 1012.12 1013.36 1014.03 1014.95 1016.92 1018.18 1018.45 1017.31 1016.17 1015.48 1013.11 1011.30 1010.40 1010.04 1010.28 1010.46 1010.55 1010.76 1011.06 1011.39 1011.96 1012.32 1012.85 1013.39 1013.73 1014.23 1014.74 1015.25 1015.70 1016.05 1016.33 1016.66 1016.99 1017.60 1018.20 1018.63 1018.76 1018.98 1019.17 1019.44
1009.29 1011.19 1010.79 1010.79 1010.97 1011.50 1012.79 1013.77 1015.26 1016.89 1017.86 1017.71 1016.85 1014.89 1012.17 1010.78 1010.30 1010.00 1010.12 1010.47 1010.73 1010.92 1011.02 1011.43 1011.80 1012.06 1012.55 1013.20 1013.56 1014.08 1014.54 1014.94 1015.24 1015.57 1015.84 1016.09 1016.56 1017.05 1017.60 1017.94 1018.11 1018.41 1018.69 1018.96
1008.61 1010.19 1010.74 1010.80 1011.22 1011.95 1013.19 1013.46 1014.38 1016.22 1018.09 1017.92 1016.10 1014.08 1012.17 1010.72 1010.46 1010.34 1010.29 1010.52 1010.83 1010.93 1011.09 1011.43 1011.68 1012.22 1012.61 1013.08 1013.22 1013.45 1013.97 1014.38 1014.74 1014.80 1015.11 1015.51 1015.86 1016.24 1016.58 1017.05 1017.35 1017.46 1017.69 1018.03
1007.25 1010.56 1011.26 1011.68 1011.94 1012.23 1011.98 1012.98 1014.55 1015.61 1017.48 1017.30 1015.08 1013.46 1011.53 1010.88 1010.66 1010.62 1010.60 1010.70 1010.82 1011.02 1011.33 1011.80 1012.12 1012.48 1012.94 1013.27 1013.68 1013.87 1014.01 1014.13 1014.34 1014.50 1014.70 1014.96 1015.32 1015.63 1015.97 1016.40 1016.78 1017.04 1017.19 1017.50
1006.68 1009.57 1012.47 1012.14 1011.71 1011.22 1012.45 1012.50 1013.40 1014.49 1015.42 1015.29 1014.91 1012.52 1010.19 1010.13 1010.35 1010.72 1010.82 1010.94 1011.11 1011.38 1011.76 1012.18 1012.62 1013.10 1013.57 1013.78 1014.02 1014.12 1014.27 1014.53 1014.63 1014.66 1014.63 1014.81 1015.12 1015.24 1015.39 1015.69 1016.16 1016.62 1017.10 1017.17
1006.65 1009.34 1012.05 1012.56 1012.60 1012.27 1011.92 1011.75 1012.28 1013.39 1014.63 1014.85 1014.29 1012.05 1010.06 1010.00 1010.26 1010.41 1010.73 1010.88 1011.27 1011.69 1012.10 1012.48 1012.95 1013.45 1013.84 1014.11 1014.26 1014.41 1014.52 1014.57 1014.62 1014.64 1014.91 1015.13 1015.20 1015.45 1015.67 1016.05 1016.35 1016.62 1017.01 1017.32
1006.22 1009.39 1012.00 1013.92 1013.62 1012.74 1012.33 1011.86 1011.75 1012.45 1013.46 1014.08 1014.00 1011.87 1010.64 1010.18 1010.41 1010.49 1010.61 1010.67 1010.88 1011.24 1011.81 1012.41 1012.89 1013.43 1013.81 1014.12 1014.30 1014.52 1014.70 1014.92 1015.09 1015.08 1015.21 1015.39 1015.46 1015.63 1015.85 1016.10 1016.32 1016.57 1016.92 1017.34
1005.82 1008.37 1009.43 1009.66 1009.45 1011.05 1012.15 1011.92 1011.86 1012.29 1013.22 1013.04 1011.97 1011.37 1010.96 1010.60 1010.41 1010.44 1010.45 1010.25 1010.40 1010.89 1011.38 1011.89 1012.57 1013.05 1013.43 1013.81 1014.04 1014.24 1014.59 1014.88 1015.28 1015.52 1015.76 1016.04 1016.17 1016.19 1016.25 1016.35 1016.62 1016.92 1017.03 1017.48
1005.73 1008.51 1009.86 1010.49 1010.74 1011.13 1011.92 1012.37 1012.31 1012.00 1011.91 1011.87 1009.88 1011.03 1010.20 1009.89 1010.00 1009.92 1009.79 1009.83 1010.06 1010.52 1011.14 1011.68 1012.18 1012.83 1013.27 1013.70 1013.96 1014.13 1014.49 1014.87 1015.18 1015.51 1015.98 1016.32 1016.66 1016.75 1017.15 1017.48 1017.44 1017.60 1017.78 1017.92
1005.59 1008.77 1010.21 1011.75 1011.57 1011.46 1011.69 1011.57 1011.53 1010.72 1010.06 1010.79 1009.97 1009.62 1009.16 1009.22 1009.19 1009.49 1009.55 1009.56 1010.10 1010.64 1011.17 1011.42 1011.86 1012.35 1012.85 1013.29 1013.69 1013.96 1014.39 1014.87 1015.34 1015.59 1015.96 1016.35 1016.79 1017.30 1017.71 1018.15 1018.47 1018.72 1018.78 1018.82
1006.16 1008.35 1010.10 1012.91 1012.45 1012.57 1012.79 1010.08 1009.80 1009.23 1009.75 1008.68 1009.56 1008.00 1008.41 1008.65 1008.87 1009.02 1009.26 1009.53 1010.14 1010.63 1011.01 1011.33 1011.77 1012.13 1012.40 1012.77 1013.19 1013.91 1014.37 1014.88 1015.24 1015.57 1015.99 1016.60 1016.95 1017.39 1017.73 1017.95 1018.56 1019.12 1019.37 1019.49
1006.20 1008.00 1010.15 1013.10 1013.11 1012.50 1008.63 1008.07 1008.26 1008.40 1008.16 1007.91 1007.56 1007.79 1008.00 1008.38 1008.67 1008.75 1009.17 1009.66 1010.17 1010.63 1011.06 1011.50 1011.66 1011.95 1012.22 1012.44 1012.92 1013.49 1014.15 1014.82 1015.60 1016.24 1016.66 1016.88 1017.13 1017.57 1018.10 1018.60 1018.99 1019.36 1019.80 1020.06
1005.70 1007.68 1010.36 1012.36 1012.34 1010.50 1008.54 1007.50 1007.68 1008.36 1007.04 1007.16 1006.47 1007.69 1008.12 1008.59 1008.90 1008.13 1009.18 1009.59 1010.26 1010.98 1011.61 1012.12 1012.45 1012.49 1012.33 1012.56 1012.93 1013.64 1014.58 1015.29 1016.01 1016.56 1016.77 1016.93 1017.16 1017.74 1018.29 1018.80 1019.16 1019.93 1020.25 1020.53
1007.30 1007.78 1009.24 1011.09 1011.37 1009.41 1006.47 1005.74 1006.12 1007.78 1006.34 1005.70 1006.68 1007.14 1008.02 1009.02 1009.52 1007.27 1008.86 1010.26 1011.27 1011.98 1012.42 1012.90 1013.18 1013.27 1013.19 1013.13 1013.29 1013.96 1014.77 1015.50 1016.10 1016.51 1016.86 1016.94 1017.26 1017.78 1018.33 1018.79 1019.14 1019.39 1019.81 1020.66
1007.90 1008.64 1009.14 1009.49 1009.36 1007.32 1005.46 1005.08 1005.72 1007.18 1004.78 1003.76 1004.71 1005.24 1006.99 1008.18 1007.65 1009.32 1009.93 1011.19 1012.08 1012.66 1013.36 1013.93 1014.14 1014.45 1014.75 1014.67 1014.54 1014.96 1015.45 1016.00 1016.34 1016.70 1017.29 1017.60 1017.79 1018.19 1018.38 1018.82 1019.28 1019.79 1020.27 1020.80
1005.73 1007.20 1007.94 1008.62 1008.60 1006.34 1004.28 1004.63 1004.07 1004.12 1004.30 1004.22 1004.94 1006.03 1007.05 1007.72 1008.99 1009.92 1010.59 1011.73 1012.91 1013.65 1014.28 1014.81 1015.17 1015.76 1015.62 1015.56 1015.28 1015.63 1015.97 1016.22 1016.47 1017.00 1017.57 1018.13 1018.35 1018.68 1018.83 1019.24 1019.55 1020.12 1020.52 1021.17
1005.15 1003.30 1004.29 1005.38 1003.67 1003.51 1002.86 1002.64 1003.05 1003.38 1004.16 1004.88 1005.59 1006.12 1006.71 1007.76 1009.01 1010.25 1011.54 1012.71 1013.96 1014.68 1015.38 1015.82 1015.97 1016.23 1016.40 1016.38 1016.06 1016.00 1016.39 1016.62 1016.97 1017.52 1018.12 1018.39 1018.57 1019.03 1019.34 1019.67 1019.89 1020.59 1020.99 1021.41
1003.47 1002.58 1003.20 1003.74 1003.44 1003.26 1003.40 1003.14 1003.21 1003.71 1004.38 1005.20 1005.62 1006.21 1007.00 1008.22 1009.59 1011.02 1012.24 1013.57 1014.59 1015.37 1015.99 1016.24 1016.46 1016.79 1017.12 1017.00 1016.78 1016.81 1016.78 1016.94 1017.48 1018.11 1018.60 1018.81 1019.05 1019.51 1019.65 1019.78 1020.18 1020.76 1021.14 1021.51
1000.96 1001.69 1001.80 1002.32 1002.86 1003.37 1003.81 1003.76 1003.58 1004.28 1005.00 1005.70 1006.24 1006.59 1007.35 1008.50 1010.20 1011.40 1013.08 1014.34 1015.30 1016.05 1016.51 1016.63 1016.94 1017.51 1017.85 1017.82 1017.88 1017.93 1017.76 1017.85 1018.26 1018.69 1019.11 1019.34 1019.57 1019.91 1020.16 1020.48 1020.77 1021.06 1021.25 1021.56
999.65 999.54 1000.35 999.83 1001.17 1001.29 1002.08 1002.69 1003.38 1004.65 1005.61 1006.05 1007.00 1007.79 1008.29 1009.12 1010.56 1011.97 1013.73 1014.74 1015.69 1016.44 1017.09 1017.56 1018.08 1018.24 1018.53 1018.56 1018.61 1018.72 1018.54 1018.42 1018.98 1019.41 1019.72 1019.96 1020.18 1020.53 1020.74 1020.84 1021.21 1021.24 1021.29 1021.60
Wind_Speed
11 8 14 19 14 7 14 12 8 12 5 5 9 9 11 10 8 8 8 8 7 11 11 12 10 10 9 9 11 14 13 11 9 8 8 6 8 6 5 5 8 8 7 7
11 19 18 14 15 14 9 12 10 5 6 2 7 12 9 10 10 10 10 9 9 7 10 12 14 12 14 15 15 14 14 12 12 10 9 7 7 5 7 5 6 7 8 8
21 15 18 19 18 17 14 11 9 6 5 5 6 11 12 11 11 9 10 8 9 9 9 10 12 13 10 13 15 16 17 18 16 14 7 4 4 3 4 7 7 7 8 8
12 11 19 19 19 17 16 11 9 8 4 2 7 7 6 5 16 17 13 11 12 10 8 8 13 12 13 16 11 13 15 16 15 15 12 13 10 9 9 9 7 9 11 10
15 22 24 22 18 13 5 9 4 6 1 6 5 2 7 7 6 8 18 14 13 12 10 9 10 16 17 15 15 15 15 15 15 16 14 12 12 10 8 7 10 10 11 13
4 4 13 7 8 9 8 10 7 3 2 7 10 8 6 6 7 8 4 10 14 12 11 12 10 9 12 12 11 11 13 15 17 16 19 17 16 12 9 10 8 8 7 9
4 7 4 10 15 6 8 12 4 2 5 8 6 8 11 5 3 2 1 6 4 3 4 7 10 9 8 10 12 10 10 12 9 11 13 16 14 13 13 11 10 10 9 8
14 11 13 12 24 14 20 13 7 8 6 4 4 8 7 8 2 5 3 3 6 4 2 4 4 8 9 9 9 9 9 9 9 9 11 9 12 8 10 10 8 7 7 7
13 5 10 15 19 14 15 17 5 8 0 2 6 7 8 9 4 4 7 7 7 6 7 8 5 4 6 7 9 10 9 8 8 10 8 8 9 12 10 9 7 6 6 5
6 8 7 7 8 5 18 11 5 2 6 5 5 5 7 4 7 6 5 5 3 4 5 3 1 3 2 2 3 6 7 9 8 7 7 9 8 8 10 7 9 7 6 7
14 8 2 7 8 18 7 16 6 5 5 6 2 7 6 10 8 8 7 6 5 3 2 2 3 4 3 1 1 3 4 4 4 5 4 4 3 4 5 5 4 4 3 6
4 8 10 12 3 5 6 12 5 6 6 2 3 7 3 9 9 9 8 7 5 3 3 2 2 3 3 3 3 4 4 4 4 4 3 2 2 2 3 3 5 5 6 5
8 6 11 4 6 1 10 10 17 6 4 7 6 6 2 8 8 6 8 6 6 5 6 4 4 4 4 5 4 3 3 3 2 3 4 4 4 5 5 5 5 5 6 5
8 5 7 15 12 8 8 14 14 5 4 5 12 5 6 6 7 7 5 6 3 6 6 4 4 5 6 6 6 6 6 6 5 5 3 3 3 4 3 4 5 5 5 6
8 6 6 7 9 12 20 14 7 16 8 9 13 14 9 10 10 10 10 4 4 3 4 5 4 5 5 6 5 5 6 6 6 6 4 4 2 0 3 2 2 3 3 4
8 5 7 4 7 10 20 22 20 28 27 20 11 12 4 9 6 6 3 2 2 3 6 7 7 6 7 7 7 6 6 6 5 6 6 6 5 4 3 3 3 4 4 4
12 8 7 1 7 11 0 28 29 26 21 28 15 13 6 6 4 6 6 4 4 5 7 7 7 8 7 8 8 8 7 6 6 6 6 6 6 5 5 5 5 4 4 4
11 8 5 6 5 4 10 25 28 29 28 28 23 7 7 5 6 8 7 5 8 6 6 5 3 3 5 6 7 7 7 7 6 5 5 5 5 6 5 5 5 5 3 3
7 6 6 9 6 4 7 9 26 21 23 23 30 15 8 5 5 18 8 8 3 3 3 1 2 3 3 6 6 7 6 6 6 6 6 6 6 6 6 6 6 4 4 4
6 7 6 4 8 14 2 12 17 6 20 13 17 16 12 7 8 14 8 5 6 5 4 4 6 4 5 1 6 8 7 7 6 6 6 6 6 6 6 6 6 3 5 4
12 6 13 6 4 8 6 10 18 12 9 12 18 19 17 14 14 7 8 6 4 4 5 5 6 5 5 6 3 5 5 4 4 5 5 5 4 5 6 6 3 5 5 5
14 15 10 4 3 16 8 10 21 7 1 6 6 7 9 7 9 7 8 8 6 6 6 6 6 5 5 4 3 5 6 5 6 6 6 4 4 4 4 6 4 5 6 5
6 15 15 16 8 4 15 10 8 7 7 5 7 5 8 9 7 9 7 8 6 6 4 3 5 5 5 5 3 6 2 4 6 6 5 5 6 5 4 4 5 4 4 4
6 8 8 8 8 8 13 1 5 4 6 6 6 7 8 8 10 7 8 7 6 4 5 2 6 6 6 5 7 5 5 5 6 6 5 4 5 5 4 4 4 4 3 3
7 13 9 4 3 7 2 9 11 8 8 8 5 6 9 11 8 8 7 6 6 5 2 4 7 6 6 6 8 6 5 4 6 6 4 4 4 5 5 4 3 3 2 4
8 18 14 11 14 13 13 14 9 11 11 10 10 7 5 8 10 9 8 6 6 7 3 7 6 7 6 6 7 6 5 6 6 5 4 3 3 3 3 3 3 7 6 3
Wind_Direction
172 159 202 186 194 188 173 191 198 216 150 153 238 249 241 236 240 219 244 248 238 181 183 183 187 180 187 179 182 183 176 179 182 188 185 183 198 188 189 195 189 192 181 186
154 214 193 192 191 225 191 171 214 353 121 173 266 261 232 219 231 215 217 239 250 200 181 180 185 185 191 193 187 177 174 183 197 196 196 194 185 189 196 190 199 185 184 186
178 179 171 182 192 202 218 209 187 199 152 226 294 282 237 235 238 213 216 208 240 221 200 183 179 189 189 202 195 187 184 192 196 196 188 178 170 191 182 203 198 192 185 187
193 166 185 190 192 187 207 220 155 199 112 241 154 285 310 278 223 217 212 210 221 229 223 199 181 184 192 205 199 206 197 196 196 185 188 195 195 194 207 200 198 188 192 200
187 185 182 191 187 180 190 116 99 95 285 324 236 265 268 231 261 212 213 215 216 216 216 217 193 193 199 194 201 199 202 204 195 191 196 194 201 207 197 198 198 195 194 200
61 149 172 151 144 147 134 114 95 104 121 265 216 204 263 212 217 217 194 201 214 218 206 210 214 196 203 191 193 201 203 211 202 197 196 199 204 202 204 205 206 206 205 200
126 176 66 158 144 122 155 135 123 164 201 231 347 197 238 270 121 68 304 273 310 40 234 210 198 198 191 185 192 187 191 211 216 210 206 208 210 202 206 210 208 201 202 200
157 176 164 186 175 178 174 166 152 179 187 202 310 230 247 244 14 129 222 261 296 272 231 266 242 200 186 184 179 180 188 204 194 200 212 208 209 205 211 217 214 213 205 204
163 161 173 175 167 147 198 196 127 105 5 71 202 252 289 262 218 256 266 188 240 247 216 223 229 203 186 191 193 187 187 202 201 201 198 204 205 208 210 209 202 195 186 190
156 101 173 169 147 218 183 152 152 211 151 235 251 234 228 205 205 215 170 179 107 58 16 348 229 182 123 133 193 203 205 206 211 214 204 207 208 203 208 196 212 205 188 190
122 115 147 132 204 185 156 185 183 133 167 172 154 258 205 174 166 157 116 96 72 40 47 12 75 82 84 77 230 229 205 215 203 212 212 196 205 193 176 186 186 180 162 160
125 114 150 193 342 6 234 191 150 165 207 213 151 267 194 136 139 129 142 135 141 160 142 89 126 145 175 214 202 203 188 174 178 181 151 147 165 176 176 189 200 186 185 178
172 135 116 152 339 300 208 221 191 95 93 199 130 254 286 120 125 146 143 149 162 159 144 161 160 191 206 197 184 200 178 164 131 124 149 171 183 179 198 211 177 153 140 135
100 131 168 183 180 111 185 203 199 133 137 159 220 144 158 171 176 170 185 219 219 149 162 180 190 202 197 193 185 181 169 150 159 158 164 181 204 182 173 142 150 147 151 157
118 133 128 161 152 149 173 192 198 214 192 188 225 215 213 194 190 188 195 220 325 335 281 235 221 211 207 194 199 188 168 164 174 170 173 174 195 101 73 97 101 115 145 136
171 143 117 37 151 157 180 192 190 205 208 229 249 263 162 223 226 199 208 260 252 226 250 250 233 211 208 203 200 189 179 170 173 169 166 135 133 103 118 109 106 100 98 105
159 125 132 148 123 105 13 202 196 217 206 215 210 217 132 119 130 183 245 280 245 243 246 251 236 218 212 204 189 189 183 165 178 168 150 152 141 140 137 128 121 120 125 109
144 111 89 156 116 182 238 183 204 207 212 218 233 164 191 193 199 216 207 214 258 251 254 287 253 237 223 195 185 173 166 161 169 141 139 146 142 133 125 117 120 106 101 103
145 121 101 144 199 253 218 185 190 186 233 217 228 225 229 245 323 269 164 215 214 79 81 32 335 309 288 197 175 151 140 138 140 161 164 161 147 137 141 134 123 90 95 90
43 77 110 148 156 211 177 170 166 109 262 193 213 219 204 151 230 253 160 100 95 84 59 6 341 336 330 329 141 143 152 152 170 177 174 156 144 141 142 141 138 134 129 127
157 162 183 192 199 279 198 167 137 158 252 190 190 211 192 197 219 135 119 91 99 91 61 10 36 45 5 354 106 128 139 162 158 126 124 114 121 133 136 126 109 118 114 108
166 168 185 121 180 253 174 150 162 206 307 134 133 150 171 166 134 139 122 118 102 86 48 30 59 42 14 10 96 124 121 133 123 122 110 98 94 100 123 126 113 116 124 125
168 194 165 191 198 212 180 168 190 160 144 158 144 147 142 137 152 145 133 116 97 94 94 71 105 84 27 9 50 96 95 107 107 103 113 114 105 103 95 109 110 110 115 131
226 173 168 116 218 180 204 62 124 134 137 151 140 135 143 140 143 131 125 136 123 113 106 93 93 77 56 30 46 60 79 94 97 100 100 100 108 105 95 87 105 120 130 119
179 168 155 209 49 81 156 213 186 135 126 125 112 148 155 133 141 131 127 120 117 107 63 76 96 89 65 52 48 34 38 70 89 92 91 95 104 118 106 92 114 116 120 135
189 182 188 207 164 182 191 202 146 148 170 157 146 130 93 130 135 120 125 123 126 118 102 87 80 87 82 78 69 48 36 76 93 91 93 97 95 74 93 109 78 72 77 96